Location: Coffee Creek Observatory
(38.8077°N, 94.7179°W)
Time: 16:32:07
(UTC-05:00)

Amateur Radio Satellites - All Passes

Search period start: 26 April 2017 16:02
Search period end: 27 April 2017 16:02
Location: Coffee Creek Observatory, 38.8077°N, 94.7179°W

Satellite Date Start Highest point End Downlink Frequencies (MHz)
Time Altitude Azimuth
YUBILEINY 26 Apr 16:05:22 16:14:05 65° 80° (E) 16:22:47 435.215
MOZHAYETS 4 26 Apr 16:08:55 16:12:58 30° 96° (E) 16:17:00
ITAMSAT 1 26 Apr 16:09:20 16:14:28 63° 258° (WSW) 16:19:38 435.822/435.867
BEESAT 26 Apr 16:13:03 16:17:49 69° 102° (ESE) 16:22:34 436.000
BEESAT 2 26 Apr 16:27:11 16:29:47 16° 314° (NW) 16:32:24 435.950
ITUPSAT 1 26 Apr 16:53:43 16:58:17 46° 288° (WNW) 17:02:50 437.325
AO-7 26 Apr 16:54:52 17:02:35 42° 260° (W) 17:10:21 .
SO-50 26 Apr 16:59:50 17:03:48 31° 246° (WSW) 17:07:45 436.795
CUBESAT XI-V 26 Apr 17:00:00 17:03:13 18° 93° (E) 17:06:24 437.345
Tancredo 1 26 Apr 17:06:12 17:07:04 11° 232° (SW) 17:07:58 437.200
CUTE-I 26 Apr 17:19:10 17:21:22 13° 60° (ENE) 17:23:34 437.470
RS-15 26 Apr 17:28:25 17:40:43 88° 241° (WSW) 17:52:22 29.354- 29.394
DOVE 4 26 Apr 17:35:53 17:40:23 29° 69° (ENE) 17:44:51 437.250
MOZHAYETS 4 26 Apr 17:46:12 17:49:58 25° 292° (WNW) 17:53:44
BEESAT 26 Apr 17:52:56 17:54:59 13° 298° (WNW) 17:57:03 436.000
KKS-1 26 Apr 17:58:49 18:03:17 79° 103° (ESE) 18:07:41 437.445
YUBILEINY 26 Apr 18:03:23 18:10:07 26° 278° (W) 18:16:52 435.215
XW-2D 26 Apr 18:05:03 18:08:14 27° 71° (ENE) 18:11:28 145.860 - 145.880
XW-2B 26 Apr 18:11:49 18:15:09 32° 72° (ENE) 18:18:31 145.730 - 145.750
HO-68 26 Apr 18:13:49 18:17:55 16° 55° (NE) 18:22:00 435.675
KAITUO 1B 26 Apr 18:21:40 18:25:00 33° 73° (ENE) 18:28:22 145.475/437.950
LilacSat-2 26 Apr 18:22:21 18:25:58 47° 74° (ENE) 18:29:35 437.200
XW-2C 26 Apr 18:23:27 18:27:01 46° 74° (ENE) 18:30:37 145.795 - 145.815
STARS 26 Apr 18:30:57 18:35:19 76° 103° (ESE) 18:39:39 437.465
CUBESAT XI-V 26 Apr 18:36:17 18:40:44 43° 288° (WNW) 18:45:11 437.345
XW-2F 26 Apr 18:48:53 18:52:35 83° 258° (WSW) 18:56:20 145.980 - 146.000
CUTE-I 26 Apr 18:55:18 19:00:40 84° 259° (W) 19:06:02 437.470
NUDT-PHONESAT 26 Apr 19:00:43 19:04:21 71° 259° (WSW) 19:08:02 437.300
CUTE 1.7 + AOD 2 26 Apr 19:04:12 19:07:06 18° 67° (ENE) 19:10:02 437.475
NO-84 26 Apr 19:04:12 19:06:50 18° 127° (SE) 19:09:20 435.350 FM
JUGNU 26 Apr 19:05:39 19:07:21 11° 177° (S) 19:09:04 437.505
XW-2A 26 Apr 19:12:53 19:15:19 19° 70° (ENE) 19:17:46 145.665 - 145.685
DOVE 4 26 Apr 19:13:08 19:17:53 34° 264° (W) 19:22:39 437.250
SEEDS 26 Apr 19:24:11 19:27:13 20° 68° (ENE) 19:30:16 437.485
XW-2D 26 Apr 19:39:56 19:42:27 17° 266° (W) 19:44:59 145.860 - 145.880
RS-15 26 Apr 19:43:19 19:51:19 21° 262° (W) 19:59:08 29.354- 29.394
XW-2B 26 Apr 19:47:16 19:49:26 15° 267° (W) 19:51:36 145.730 - 145.750
O/OREOS (USA 219) 26 Apr 19:49:42 19:52:45 17° 56° (ENE) 19:55:46 437.305
UWE-3 26 Apr 19:55:59 19:59:01 19° 68° (ENE) 20:02:01 435.000/436.395/437.385
KAITUO 1B 26 Apr 19:57:12 19:59:08 14° 267° (W) 20:01:04 145.475/437.950
HO-68 26 Apr 19:57:27 20:04:36 86° 74° (ENE) 20:11:48 435.675
LilacSat-2 26 Apr 20:00:11 20:00:30 10° 269° (W) 20:00:48 437.200
XW-2C 26 Apr 20:01:00 20:01:28 10° 269° (W) 20:01:56 145.795 - 145.815
CUBEBUG 2 26 Apr 20:07:50 20:11:59 44° 73° (ENE) 20:16:03 437.445
AAUSAT CUBESAT 2 26 Apr 20:30:59 20:35:01 54° 74° (ENE) 20:39:05 437.432
CUTE 1.7 + AOD 2 26 Apr 20:38:49 20:42:40 34° 263° (W) 20:46:33 437.475
NO-84 26 Apr 20:40:38 20:44:12 44° 319° (NW) 20:47:28 435.350 FM
XW-2A 26 Apr 20:45:28 20:47:58 19° 265° (W) 20:50:28 145.665 - 145.685
STRAND 1 26 Apr 20:47:23 20:52:30 81° 104° (ESE) 20:57:37 437.568
ZACube-1 26 Apr 20:50:20 20:54:19 43° 74° (ENE) 20:58:16 437.345
JUGNU 26 Apr 20:54:40 20:55:26 10° 187° (S) 20:56:11 437.505
AO-73 26 Apr 20:57:10 21:01:10 47° 74° (ENE) 21:05:09 145.935
SEEDS 26 Apr 20:58:56 21:02:40 31° 263° (W) 21:06:27 437.485
AO-85 26 Apr 21:00:09 21:02:25 15° 46° (NE) 21:04:44 145.980
M-CUBED/EXP-1 PRIME 26 Apr 21:10:49 21:15:00 71° 289° (WNW) 21:18:48 437.505
Oscar 11 26 Apr 21:12:26 21:16:39 60° 75° (ENE) 21:20:54 .
DELFI C3 26 Apr 21:16:22 21:19:02 17° 68° (ENE) 21:21:42 145.870
O/OREOS (USA 219) 26 Apr 21:28:02 21:32:25 47° 254° (WSW) 21:36:46 437.305
UWE-3 26 Apr 21:31:23 21:35:14 33° 262° (W) 21:39:04 435.000/436.395/437.385
CUBEBUG 2 26 Apr 21:46:20 21:48:47 15° 267° (W) 21:51:11 437.445
HO-68 26 Apr 21:49:11 21:53:06 15° 270° (W) 21:57:02 435.675
OBJECT BX 26 Apr 21:55:52 21:59:11 35° 73° (ENE) 22:02:32 145.990 - 145.960
AAUSAT CUBESAT 2 26 Apr 22:09:36 22:10:47 11° 270° (W) 22:11:58 437.432
SRMSAT 26 Apr 22:16:12 22:18:13 12° 180° (S) 22:20:15 437.500
PRISM 26 Apr 22:23:23 22:26:48 25° 96° (E) 22:30:12 437.425
ZACube-1 26 Apr 22:28:39 22:30:48 14° 268° (W) 22:32:56 437.345
STRAND 1 26 Apr 22:29:02 22:30:58 12° 300° (WNW) 22:32:53 437.568
AO-73 26 Apr 22:35:49 22:37:39 13° 268° (W) 22:39:28 145.935
TIGRISAT 26 Apr 22:36:34 22:39:47 20° 94° (E) 22:43:02 435.000
AO-85 26 Apr 22:39:10 22:43:05 54° 242° (WSW) 22:47:10 145.980
ESTCUBE 1 26 Apr 22:39:38 22:41:04 11° 62° (ENE) 22:42:31 437.505/2401.250
DELFI C3 26 Apr 22:49:57 22:53:32 32° 263° (W) 22:57:10 145.870
Oscar 11 26 Apr 22:52:17 22:53:08 10° 270° (W) 22:54:00 .
UNISAT 6 26 Apr 22:57:12 23:01:13 38° 98° (E) 23:05:16 437.425
LO-87 26 Apr 22:59:34 23:02:42 28° 72° (ENE) 23:05:50 145.935 - 145.965
FO-29 26 Apr 23:01:22 23:06:05 33° 98° (E) 23:11:04 435.910
BEESAT 2 26 Apr 23:07:09 23:10:17 21° 49° (NE) 23:13:24 435.950
BEESAT 3 26 Apr 23:07:32 23:11:29 51° 56° (NE) 23:15:21 437.485
OBJECT BX 26 Apr 23:31:24 23:33:01 12° 268° (W) 23:34:37 145.990 - 145.960
SPROUT 26 Apr 23:52:22 23:55:08 17° 66° (ENE) 23:57:54 437.525
PRISM 26 Apr 23:58:36 00:01:59 24° 291° (WNW) 00:05:19 437.425
EO-79 27 Apr 00:05:39 00:07:59 14° 93° (E) 00:10:17 145.935-145.965
DUCHIFAT 1 27 Apr 00:08:01 00:09:43 12° 92° (E) 00:11:25 145.980
TIGRISAT 27 Apr 00:12:44 00:16:29 31° 289° (WNW) 00:20:18 435.000
ESTCUBE 1 27 Apr 00:12:46 00:17:15 70° 259° (WSW) 00:21:46 437.505/2401.250
VELOX 1 27 Apr 00:25:24 00:29:37 44° 72° (ENE) 00:33:52 145.980
LO-87 27 Apr 00:33:50 00:36:09 16° 266° (W) 00:38:29 145.935 - 145.965
UNISAT 6 27 Apr 00:34:48 00:37:39 17° 293° (WNW) 00:40:29 437.425
POLYITAN 1 27 Apr 00:43:35 00:47:34 40° 99° (E) 00:51:31 437.675
BEESAT 2 27 Apr 00:44:26 00:48:08 35° 245° (WSW) 00:51:49 435.950
UKube-1 27 Apr 00:44:37 00:47:37 19° 66° (ENE) 00:50:39 .
AIST 2D 27 Apr 00:45:41 00:49:13 81° 283° (WNW) 00:52:45 435.315
FO-29 27 Apr 00:46:44 00:51:06 28° 292° (WNW) 00:55:41 435.910
BEESAT 3 27 Apr 00:46:50 00:48:35 13° 252° (WSW) 00:50:20 437.485
QB50P2 27 Apr 00:50:07 00:54:14 53° 100° (E) 00:58:21 145.880/145.840
50 SAT 27 Apr 01:05:11 01:08:39 71° 76° (ENE) 01:12:08 437.505
BUGSAT 1 27 Apr 01:08:06 01:10:53 18° 94° (E) 01:13:40 437.445
NANOSAT C BR1 27 Apr 01:11:47 01:16:00 81° 104° (ESE) 01:20:10 145.865
DX 1 27 Apr 01:16:27 01:20:46 61° 74° (ENE) 01:25:06 434.975-435.025
SPROUT 27 Apr 01:26:43 01:30:43 39° 262° (W) 01:34:44 437.525
EO-79 27 Apr 01:39:57 01:43:55 42° 287° (WNW) 01:47:52 145.935-145.965
DUCHIFAT 1 27 Apr 01:41:36 01:45:39 49° 286° (WNW) 01:49:40 145.980
PCSat 27 Apr 01:45:36 01:49:20 19° 105° (ESE) 01:53:05 145.827
VELOX 1 27 Apr 02:03:32 02:06:16 16° 267° (W) 02:09:00 145.980
UKube-1 27 Apr 02:19:22 02:23:22 36° 261° (W) 02:27:24 .
POLYITAN 1 27 Apr 02:20:26 02:23:01 16° 294° (WNW) 02:25:35 437.675
ITUPSAT 1 27 Apr 02:22:52 02:26:05 18° 65° (ENE) 02:29:19 437.325
QB50P2 27 Apr 02:27:43 02:29:33 13° 296° (WNW) 02:31:22 145.880/145.840
BUGSAT 1 27 Apr 02:42:45 02:46:17 30° 289° (WNW) 02:49:48 437.445
DX 1 27 Apr 02:56:10 02:57:19 11° 269° (W) 02:58:27 434.975-435.025
Oscar 19 27 Apr 02:56:50 03:02:05 90° 315° (NW) 03:07:17 437.125/150
Gurwin Techsat 1B 27 Apr 03:00:42 03:05:57 57° 101° (E) 03:11:08 435.225
AO-7 27 Apr 03:08:41 03:11:17 12° 88° (E) 03:13:52 .
MOZHAYETS 4 27 Apr 03:09:45 03:13:26 25° 68° (ENE) 03:17:08
YUBILEINY 27 Apr 03:14:18 03:17:39 13° 75° (ENE) 03:21:00 435.215
NO-84 27 Apr 03:15:49 03:18:40 53° 42° (NE) 03:21:26 435.350 FM
BEESAT 27 Apr 03:17:56 03:22:38 68° 74° (ENE) 03:27:22 436.000
PCSat 27 Apr 03:26:57 03:32:15 54° 302° (WNW) 03:37:36 145.827
ITUPSAT 1 27 Apr 03:59:00 04:03:34 45° 261° (W) 04:08:07 437.325
CUBESAT XI-V 27 Apr 04:02:37 04:05:23 16° 65° (ENE) 04:08:11 437.345
ITAMSAT 1 27 Apr 04:23:25 04:28:28 50° 100° (E) 04:33:28 435.822/435.867
Oscar 19 27 Apr 04:39:06 04:40:35 11° 301° (WNW) 04:42:05 437.125/150
Gurwin Techsat 1B 27 Apr 04:41:53 04:45:24 18° 297° (WNW) 04:48:54 435.225
MOZHAYETS 4 27 Apr 04:46:29 04:50:27 29° 264° (W) 04:54:26
KKS-1 27 Apr 04:55:11 04:59:35 61° 74° (ENE) 05:04:01 437.445
AO-7 27 Apr 04:56:58 05:05:18 72° 106° (ESE) 05:13:37 .
BEESAT 27 Apr 04:59:26 05:00:50 11° 269° (W) 05:02:15 436.000
YUBILEINY 27 Apr 05:04:12 05:12:51 77° 94° (E) 05:21:33 435.215
STARS 27 Apr 05:25:52 05:30:11 56° 74° (ENE) 05:34:30 437.465
SO-50 27 Apr 05:35:27 05:36:42 11° 107° (ESE) 05:37:55 436.795
CUBESAT XI-V 27 Apr 05:37:48 05:42:19 51° 261° (W) 05:46:52 437.345
RS-15 27 Apr 05:44:15 05:49:50 15° 95° (E) 05:55:28 29.354- 29.394
ITAMSAT 1 27 Apr 06:03:54 06:07:31 19° 296° (WNW) 06:11:07 435.822/435.867
M-CUBED/EXP-1 PRIME 27 Apr 06:22:48 06:24:53 13° 58° (ENE) 06:26:59 437.505
XW-2F 27 Apr 06:24:29 06:25:31 11° 91° (E) 06:26:34 145.980 - 146.000
STRAND 1 27 Apr 06:26:37 06:28:31 12° 60° (ENE) 06:30:26 437.568
NUDT-PHONESAT 27 Apr 06:34:18 06:35:36 11° 92° (E) 06:36:54 437.300
KKS-1 27 Apr 06:35:02 06:36:30 11° 269° (W) 06:37:58 437.445
AO-7 27 Apr 06:50:52 06:57:18 26° 304° (NW) 07:03:46 .
YUBILEINY 27 Apr 07:04:19 07:10:34 22° 294° (WNW) 07:16:53 435.215
STARS 27 Apr 07:05:05 07:06:50 12° 269° (W) 07:08:36 437.465
SO-50 27 Apr 07:11:55 07:16:32 74° 302° (WNW) 07:21:07 436.795
XW-2D 27 Apr 07:12:09 07:15:51 49° 99° (E) 07:19:34 145.860 - 145.880
DOVE 4 27 Apr 07:13:19 07:17:56 81° 102° (ESE) 07:22:15 437.250
CUTE-I 27 Apr 07:13:48 07:18:51 43° 99° (E) 07:23:51 437.470
XW-2B 27 Apr 07:19:04 07:22:50 58° 100° (E) 07:26:35 145.730 - 145.750
KAITUO 1B 27 Apr 07:27:27 07:31:11 59° 100° (E) 07:34:56 145.475/437.950
HO-68 27 Apr 07:28:26 07:32:52 17° 91° (E) 07:37:16 435.675
LilacSat-2 27 Apr 07:30:34 07:34:26 89° 135° (SE) 07:38:18 437.200
XW-2C 27 Apr 07:30:57 07:34:47 86° 103° (ESE) 07:38:37 145.795 - 145.815
RS-15 27 Apr 07:48:03 07:59:54 71° 115° (ESE) 08:12:10 29.354- 29.394
M-CUBED/EXP-1 PRIME 27 Apr 07:54:03 07:58:40 75° 254° (WSW) 08:03:21 437.505
XW-2F 27 Apr 07:56:14 07:59:52 45° 286° (WNW) 08:03:31 145.980 - 146.000
Tancredo 1 27 Apr 08:01:36 08:04:23 32° 135° (SE) 08:07:12 437.200
STRAND 1 27 Apr 08:01:52 08:06:59 81° 257° (WSW) 08:12:07 437.568
NUDT-PHONESAT 27 Apr 08:06:11 08:09:42 41° 286° (WNW) 08:13:12 437.300
XW-2A 27 Apr 08:07:55 08:10:39 23° 96° (E) 08:13:23 145.665 - 145.685
CUTE 1.7 + AOD 2 27 Apr 08:24:27 08:28:32 41° 98° (E) 08:32:35 437.475
ISS 27 Apr 08:26:34 08:29:42 46° 137° (SE) 08:32:51 437.550
SEEDS 27 Apr 08:43:23 08:47:27 43° 99° (E) 08:51:31 437.485
XW-2D 27 Apr 08:48:27 08:49:36 11° 294° (WNW) 08:50:44 145.860 - 145.880
CUTE-I 27 Apr 08:54:29 08:58:35 23° 295° (WNW) 09:02:41 437.470
SO-50 27 Apr 08:56:29 08:57:46 11° 321° (NW) 08:59:03 436.795
Oscar 11 27 Apr 09:02:45 09:04:33 12° 91° (E) 09:06:21 .
PRISM 27 Apr 09:12:06 09:14:39 16° 66° (ENE) 09:17:14 437.425
HO-68 27 Apr 09:14:03 09:21:16 81° 288° (WNW) 09:28:28 435.675
FO-29 27 Apr 09:15:10 09:18:02 14° 62° (ENE) 09:20:45 435.910
UWE-3 27 Apr 09:21:23 09:25:27 48° 99° (E) 09:29:36 435.000/436.395/437.385
TIGRISAT 27 Apr 09:34:41 09:37:24 16° 66° (ENE) 09:40:07 435.000
CUBEBUG 2 27 Apr 09:35:50 09:39:58 65° 285° (WNW) 09:44:10 437.445
Tancredo 1 27 Apr 09:37:40 09:40:18 25° 331° (NNW) 09:42:58 437.200
XW-2A 27 Apr 09:41:04 09:43:14 16° 291° (WNW) 09:45:23 145.665 - 145.685
AAUSAT CUBESAT 2 27 Apr 09:49:26 09:53:36 66° 285° (WNW) 09:57:44 437.432
UNISAT 6 27 Apr 09:54:53 09:58:40 29° 70° (ENE) 10:02:25 437.425
O/OREOS (USA 219) 27 Apr 10:00:28 10:04:03 23° 102° (ESE) 10:07:38 437.305
CUTE 1.7 + AOD 2 27 Apr 10:01:19 10:04:00 16° 294° (WNW) 10:06:40 437.475
RS-15 27 Apr 10:02:15 10:13:23 40° 319° (NW) 10:24:48 29.354- 29.394
ISS 27 Apr 10:03:42 10:06:20 22° 333° (NNW) 10:08:58 437.550
ZACube-1 27 Apr 10:15:21 10:19:33 69° 285° (WNW) 10:23:51 437.345
SEEDS 27 Apr 10:20:15 10:22:45 15° 294° (WNW) 10:25:15 437.485
AO-73 27 Apr 10:21:51 10:26:03 64° 284° (WNW) 10:30:18 145.935
DELFI C3 27 Apr 10:28:00 10:31:36 31° 97° (E) 10:35:09 145.870
PCSat 27 Apr 10:34:10 10:37:13 15° 44° (NE) 10:40:14 145.827
Oscar 11 27 Apr 10:36:44 10:40:59 53° 286° (WNW) 10:45:12 .
PRISM 27 Apr 10:45:41 10:49:35 40° 261° (W) 10:53:32 437.425
FO-29 27 Apr 10:56:07 11:02:33 84° 256° (WSW) 11:08:16 435.910
OBJECT BX 27 Apr 10:59:03 11:02:40 57° 101° (E) 11:06:15 145.990 - 145.960
UWE-3 27 Apr 10:59:25 11:01:31 14° 294° (WNW) 11:03:37 435.000/436.395/437.385
HO-68 27 Apr 11:04:05 11:07:52 15° 306° (NW) 11:11:40 435.675
TIGRISAT 27 Apr 11:09:36 11:13:46 42° 261° (W) 11:17:53 435.000
AIST 2D 27 Apr 11:19:02 11:21:58 26° 72° (ENE) 11:24:56 435.315
UNISAT 6 27 Apr 11:31:55 11:35:21 22° 265° (W) 11:38:47 437.425
POLYITAN 1 27 Apr 11:35:03 11:38:33 26° 69° (ENE) 11:42:03 437.675
O/OREOS (USA 219) 27 Apr 11:39:08 11:43:15 32° 298° (WNW) 11:47:25 437.305
QB50P2 27 Apr 11:41:22 11:45:08 33° 71° (ENE) 11:48:56 145.880/145.840
BUGSAT 1 27 Apr 11:57:54 11:59:28 12° 64° (ENE) 12:01:01 437.445
LO-87 27 Apr 12:00:41 12:04:04 39° 99° (E) 12:07:24 145.935 - 145.965
NANOSAT C BR1 27 Apr 12:02:15 12:06:17 48° 73° (ENE) 12:10:20 145.865
DELFI C3 27 Apr 12:03:21 12:06:08 18° 292° (WNW) 12:08:52 145.870
ESTCUBE 1 27 Apr 12:06:51 12:10:42 27° 96° (E) 12:14:32 437.505/2401.250
PCSat 27 Apr 12:15:55 12:21:23 89° 66° (ENE) 12:26:48 145.827
RS-15 27 Apr 12:22:39 12:30:55 20° 352° (N) 12:39:10 29.354- 29.394
EO-79 27 Apr 12:30:22 12:34:35 70° 259° (W) 12:38:48 145.935-145.965
DUCHIFAT 1 27 Apr 12:31:28 12:35:40 84° 260° (W) 12:39:52 145.980
Oscar 19 27 Apr 12:36:10 12:38:46 14° 61° (ENE) 12:41:23 437.125/150
AO-85 27 Apr 12:52:03 12:56:21 62° 118° (ESE) 13:00:23 145.980
AIST 2D 27 Apr 12:53:08 12:55:12 15° 267° (W) 12:57:17 435.315
BEESAT 3 27 Apr 12:58:48 12:59:53 11° 108° (ESE) 13:00:57 437.485
DX 1 27 Apr 13:08:13 13:09:36 11° 91° (E) 13:10:59 434.975-435.025
POLYITAN 1 27 Apr 13:10:51 13:14:15 24° 264° (W) 13:17:40 437.675
SPROUT 27 Apr 13:13:27 13:17:21 35° 98° (E) 13:21:15 437.525
QB50P2 27 Apr 13:18:00 13:20:59 19° 266° (W) 13:23:59 145.880/145.840
ISS 27 Apr 13:20:20 13:21:31 11° 14° (NNE) 13:22:43 437.550
BUGSAT 1 27 Apr 13:30:16 13:34:20 55° 259° (W) 13:38:23 437.445
LO-87 27 Apr 13:35:54 13:37:06 11° 294° (WNW) 13:38:18 145.935 - 145.965
NANOSAT C BR1 27 Apr 13:40:22 13:42:15 13° 268° (W) 13:44:08 145.865
ESTCUBE 1 27 Apr 13:43:35 13:47:25 27° 291° (WNW) 13:51:13 437.505/2401.250
VELOX 1 27 Apr 13:52:39 13:57:04 76° 286° (WNW) 14:01:28 145.980
50 SAT 27 Apr 14:02:36 14:06:07 88° 282° (WNW) 14:09:34 437.505
PCSat 27 Apr 14:02:57 14:03:55 10° 259° (WSW) 14:04:53 145.827
AO-7 27 Apr 14:05:36 14:10:55 19° 52° (NE) 14:16:14 .
UKube-1 27 Apr 14:07:19 14:11:21 37° 99° (E) 14:15:20 .
Oscar 19 27 Apr 14:12:19 14:17:27 72° 258° (WSW) 14:22:38 437.125/150
Gurwin Techsat 1B 27 Apr 14:20:23 14:25:42 79° 74° (ENE) 14:31:02 435.225
Tancredo 1 27 Apr 14:28:10 14:30:55 28° 30° (NNE) 14:33:40 437.200
BEESAT 3 27 Apr 14:33:04 14:36:55 57° 303° (WNW) 14:40:52 437.485
BEESAT 2 27 Apr 14:33:54 14:37:43 50° 117° (ESE) 14:41:37 435.950
AO-85 27 Apr 14:34:50 14:37:03 14° 315° (NW) 14:39:14 145.980
RS-15 27 Apr 14:39:32 14:49:34 27° 29° (NNE) 14:59:17 29.354- 29.394
DX 1 27 Apr 14:41:50 14:46:08 58° 286° (WNW) 14:50:23 434.975-435.025
SPROUT 27 Apr 14:50:05 14:52:59 18° 293° (WNW) 14:55:53 437.525
ISS 27 Apr 14:55:37 14:58:43 39° 33° (NNE) 15:01:48 437.550
YUBILEINY 27 Apr 15:16:18 15:24:11 36° 72° (ENE) 15:32:03 435.215
BEESAT 27 Apr 15:20:11 15:23:33 19° 94° (E) 15:26:54 436.000
ITAMSAT 1 27 Apr 15:39:59 15:45:08 69° 74° (ENE) 15:50:18 435.822/435.867
UKube-1 27 Apr 15:44:07 15:47:04 18° 294° (WNW) 15:50:00 .
SO-50 27 Apr 15:44:23 15:48:52 67° 57° (ENE) 15:53:21 436.795
